Regional Weather Roundup
Issued by NWS

Home | Current Version | Previous Version | Graphics & Text | Print | Product List | Glossary On
Versions: 1 2 3 4 5 6 7 8 9 10 11 12 13 14 15 16 17 18 19 20 21 22 23 24 25 26 27 28 29 30 31 32 33 34 35 36 37 38 39 40 41 42 43 44 45 46 47 48 49 50
974
ASUS43 KLSX 230810
RWRMO

WEATHER SUMMARY FOR MISSOURI
NATIONAL WEATHER SERVICE SPRINGFIELD MO
300 AM CDT WED MAY 23 2018

NOTE: "FAIR" INDICATES FEW OR NO CLOUDS BELOW 12,000 FEET WITH NO
       SIGNIFICANT WEATHER AND/OR OBSTRUCTIONS TO VISIBILITY.
       CURRENT SKY AND/OR WEATHER CONDITIONS ARE NOT AVAILABLE FOR
       CHILLICOTHE AND FARMINGTON.

MOZ001>031-035>038-043-044-053-054-230900-
...NORTHERN AND WESTERN MISSOURI...

CITY           SKY/WX    TMP DP  RH WIND       PRES   REMARKS
KANSAS CTY INT PTCLDY    67  63  87 SE7       30.03S
KANSAS C DTWN  CLEAR     73  63  70 CALM      30.02S
LEE`S SUMMIT   CLEAR     70  63  78 SE7       30.04S
ST JOSEPH      CLEAR     66  64  93 CALM      30.02S
CHILLICOTHE      N/A     64  61  90 CALM      30.06R
KIRKSVILLE     CLEAR     66  62  87 SE5       30.08R

$$
MOZ066>068-077>081-088>096-101>105-230900-
...SOUTHWEST MISSOURI...

CITY           SKY/WX    TMP DP  RH WIND       PRES   REMARKS
SPRINGFIELD    PTCLDY    68  64  87 SE6       30.05S
JOPLIN         CLEAR     67  65  93 SE5       30.04R
BRANSON        CLOUDY    66  66 100 CALM      30.07S

$$
MOZ032>034-039>042-045>050-055>058-069>072-230900-
...CENTRAL MISSOURI...

CITY           SKY/WX    TMP DP  RH WIND       PRES   REMARKS
COLUMBIA       CLOUDY    68  62  81 E6        30.07R
JEFFERSON CITY CLEAR     65  63  93 CALM      30.05F
ROLLA          PTCLDY    67  62  84 E7        30.08S
SEDALIA        CLOUDY    67  65  93 SE7       30.06S
WHITEMAN AFB   PTCLDY    66  62  85 SE5       30.01R
WARRENSBURG    CLOUDY    64  61  88 SE3       30.04S
OSAGE BEACH    CLOUDY    63  62  97 NE3       30.06S

$$
MOZ051-052-059>065-230900-
...EAST CENTRAL MISSOURI...

CITY           SKY/WX    TMP DP  RH WIND       PRES   REMARKS
ST LOUIS INTL  PTCLDY    68  62  81 SE6       30.08R
SPIRIT OF STL  CLEAR     65  64  97 E3        30.06S
ST CHARLES     PTCLDY    68  62  81 E5        30.07R

$$
MOZ072>076-082>087-097>100-106>115-230900-
...SOUTH CENTRAL AND SOUTHEAST MISSOURI...

CITY           SKY/WX    TMP DP  RH WIND       PRES   REMARKS
CAPE GIRARDEAU CLOUDY    69  67  93 CALM      30.04S
FARMINGTON     CLOUDY    63  63 100 CALM      30.09R FOG
POPLAR BLUFF   FAIR      70  70 100 CALM      30.03S
WEST PLAINS    PTCLDY    67  65  93 CALM      30.08S

$$




USA.gov is the U.S. government's official web portal to all federal, state and local government web resources and services.